QPF
0.00 0.00 0.00 0.00 0.00 0.00 0.00 0.00 0.00 0.00 0.00 0.01 0.02 0.02 0.01 0.01 0.00 0.00 0.00 0.00 0.00 0.00 0.00 0.00 0.00 0.00 0.00 0.00 0.00 0.00 0.00 0.00 0.00 0.00 0.00 0.00 0.00 0.00 0.00 0.00 0.00 0.00 0.00
0.00 0.00 0.00 0.00 0.00 0.00 0.00 0.00 0.00 0.00 0.00 0.01 0.02 0.03 0.02 0.01 0.00 0.00 0.00 0.00 0.00 0.00 0.00 0.00 0.00 0.00 0.00 0.00 0.00 0.00 0.00 0.00 0.00 0.00 0.00 0.00 0.00 0.00 0.00 0.00 0.00 0.00 0.00
0.00 0.00 0.00 0.00 0.00 0.00 0.00 0.00 0.00 0.00 0.00 0.01 0.03 0.03 0.02 0.01 0.00 0.00 0.00 0.00 0.00 0.00 0.00 0.00 0.00 0.00 0.00 0.00 0.00 0.00 0.00 0.00 0.00 0.00 0.00 0.00 0.00 0.00 0.00 0.00 0.00 0.00 0.00
0.00 0.00 0.00 0.00 0.00 0.00 0.00 0.00 0.00 0.00 0.00 0.01 0.02 0.02 0.01 0.00 0.00 0.00 0.00 0.00 0.00 0.00 0.00 0.00 0.00 0.00 0.00 0.00 0.00 0.00 0.00 0.00 0.00 0.00 0.00 0.00 0.00 0.00 0.00 0.00 0.00 0.00 0.00
0.00 0.00 0.00 0.00 0.00 0.00 0.00 0.00 0.00 0.00 0.00 0.00 0.01 0.01 0.01 0.00 0.00 0.00 0.00 0.00 0.00 0.00 0.00 0.00 0.00 0.00 0.00 0.00 0.00 0.00 0.00 0.00 0.00 0.00 0.00 0.00 0.00 0.00 0.00 0.00 0.00 0.00 0.00
0.00 0.00 0.00 0.00 0.00 0.00 0.00 0.00 0.00 0.00 0.00 0.00 0.00 0.00 0.00 0.00 0.00 0.00 0.00 0.00 0.00 0.00 0.00 0.00 0.00 0.00 0.00 0.00 0.00 0.00 0.00 0.00 0.00 0.00 0.00 0.00 0.00 0.00 0.00 0.00 0.00 0.00 0.00
0.00 0.00 0.00 0.00 0.00 0.00 0.00 0.00 0.00 0.00 0.00 0.00 0.00 0.00 0.00 0.00 0.00 0.00 0.00 0.00 0.00 0.00 0.00 0.00 0.00 0.00 0.00 0.00 0.00 0.00 0.00 0.00 0.00 0.00 0.00 0.00 0.00 0.00 0.00 0.00 0.00 0.00 0.00
0.00 0.00 0.00 0.00 0.00 0.00 0.00 0.00 0.00 0.00 0.00 0.00 0.00 0.00 0.00 0.00 0.00 0.00 0.00 0.00 0.00 0.00 0.00 0.00 0.00 0.00 0.00 0.00 0.00 0.00 0.00 0.00 0.00 0.00 0.00 0.00 0.00 0.00 0.00 0.00 0.00 0.00 0.00
0.00 0.00 0.00 0.00 0.00 0.00 0.00 0.00 0.00 0.00 0.00 0.00 0.00 0.00 0.00 0.00 0.00 0.00 0.00 0.00 0.00 0.00 0.00 0.00 0.00 0.00 0.00 0.00 0.00 0.00 0.00 0.00 0.00 0.00 0.00 0.00 0.00 0.00 0.00 0.00 0.00 0.00 0.00
0.00 0.00 0.00 0.00 0.00 0.00 0.00 0.00 0.00 0.00 0.00 0.00 0.00 0.00 0.00 0.00 0.00 0.00 0.00 0.00 0.00 0.00 0.00 0.00 0.00 0.00 0.00 0.00 0.00 0.00 0.00 0.00 0.00 0.00 0.00 0.00 0.00 0.00 0.00 0.00 0.00 0.00 0.00
0.00 0.00 0.00 0.00 0.00 0.00 0.00 0.00 0.00 0.00 0.00 0.00 0.00 0.00 0.00 0.00 0.00 0.00 0.00 0.00 0.00 0.00 0.00 0.00 0.00 0.00 0.00 0.00 0.00 0.00 0.00 0.00 0.00 0.00 0.00 0.00 0.00 0.00 0.00 0.00 0.00 0.00 0.00
0.01 0.00 0.00 0.00 0.00 0.00 0.00 0.00 0.00 0.00 0.00 0.00 0.00 0.00 0.00 0.00 0.00 0.00 0.00 0.00 0.00 0.00 0.00 0.00 0.00 0.00 0.00 0.00 0.00 0.00 0.00 0.00 0.00 0.00 0.00 0.00 0.00 0.00 0.00 0.00 0.00 0.00 0.00
0.01 0.01 0.00 0.00 0.00 0.00 0.00 0.00 0.00 0.00 0.00 0.00 0.00 0.00 0.00 0.00 0.00 0.00 0.00 0.00 0.00 0.00 0.00 0.00 0.00 0.00 0.00 0.00 0.00 0.00 0.00 0.00 0.00 0.00 0.00 0.00 0.00 0.00 0.00 0.00 0.00 0.00 0.00
0.01 0.01 0.00 0.00 0.00 0.00 0.00 0.00 0.00 0.00 0.00 0.00 0.00 0.00 0.00 0.00 0.00 0.00 0.00 0.00 0.00 0.00 0.00 0.00 0.00 0.00 0.00 0.00 0.00 0.00 0.00 0.00 0.00 0.00 0.00 0.00 0.00 0.00 0.00 0.00 0.00 0.00 0.00
0.00 0.00 0.00 0.00 0.00 0.00 0.00 0.00 0.00 0.00 0.00 0.00 0.00 0.00 0.00 0.00 0.00 0.00 0.00 0.00 0.00 0.00 0.00 0.00 0.00 0.00 0.00 0.00 0.00 0.00 0.00 0.00 0.00 0.00 0.00 0.00 0.00 0.00 0.00 0.00 0.01 0.01 0.01
0.00 0.00 0.00 0.00 0.00 0.00 0.00 0.00 0.00 0.00 0.00 0.00 0.00 0.00 0.00 0.00 0.00 0.00 0.00 0.00 0.00 0.00 0.00 0.00 0.00 0.00 0.00 0.00 0.00 0.00 0.00 0.00 0.00 0.00 0.00 0.00 0.00 0.00 0.00 0.00 0.01 0.02 0.04
0.00 0.00 0.00 0.00 0.00 0.00 0.00 0.00 0.00 0.00 0.00 0.00 0.00 0.00 0.00 0.00 0.00 0.00 0.00 0.00 0.00 0.00 0.00 0.00 0.00 0.00 0.00 0.00 0.00 0.00 0.00 0.00 0.00 0.00 0.00 0.00 0.00 0.00 0.00 0.00 0.01 0.03 0.04
0.00 0.00 0.00 0.00 0.00 0.00 0.00 0.00 0.00 0.00 0.00 0.00 0.00 0.00 0.00 0.00 0.00 0.00 0.00 0.00 0.00 0.00 0.00 0.00 0.00 0.00 0.00 0.00 0.00 0.00 0.00 0.00 0.00 0.00 0.00 0.00 0.00 0.00 0.01 0.02 0.04 0.02 0.01
0.00 0.00 0.00 0.00 0.00 0.00 0.00 0.00 0.00 0.00 0.00 0.00 0.00 0.00 0.00 0.00 0.00 0.00 0.00 0.00 0.00 0.00 0.00 0.00 0.00 0.00 0.00 0.00 0.00 0.00 0.00 0.00 0.00 0.00 0.00 0.00 0.00 0.00 0.02 0.04 0.03 0.01 0.00
0.00 0.00 0.00 0.00 0.00 0.00 0.00 0.00 0.00 0.00 0.00 0.00 0.00 0.00 0.00 0.00 0.00 0.00 0.00 0.00 0.00 0.00 0.00 0.00 0.00 0.00 0.00 0.00 0.00 0.00 0.00 0.00 0.00 0.00 0.00 0.00 0.00 0.02 0.03 0.02 0.01 0.00 0.00
0.00 0.00 0.00 0.00 0.00 0.00 0.00 0.00 0.00 0.00 0.00 0.00 0.00 0.00 0.00 0.00 0.00 0.00 0.00 0.00 0.00 0.00 0.00 0.00 0.00 0.00 0.00 0.00 0.00 0.00 0.00 0.00 0.00 0.00 0.00 0.00 0.01 0.02 0.02 0.01 0.00 0.01 0.02
0.00 0.00 0.00 0.00 0.00 0.00 0.00 0.00 0.00 0.00 0.00 0.00 0.00 0.00 0.00 0.00 0.00 0.00 0.00 0.00 0.00 0.00 0.00 0.00 0.00 0.00 0.00 0.00 0.00 0.00 0.01 0.01 0.00 0.00 0.00 0.00 0.01 0.01 0.00 0.00 0.00 0.01 0.01
0.00 0.00 0.00 0.00 0.00 0.00 0.00 0.00 0.00 0.00 0.00 0.00 0.00 0.00 0.00 0.00 0.00 0.00 0.00 0.00 0.00 0.00 0.00 0.00 0.00 0.00 0.00 0.00 0.00 0.00 0.01 0.01 0.01 0.00 0.01 0.01 0.00 0.00 0.00 0.00 0.00 0.00 0.00
0.00 0.00 0.00 0.00 0.00 0.00 0.00 0.00 0.00 0.00 0.00 0.00 0.00 0.00 0.00 0.00 0.00 0.00 0.00 0.00 0.00 0.00 0.00 0.00 0.00 0.00 0.00 0.00 0.00 0.00 0.00 0.01 0.01 0.01 0.00 0.00 0.00 0.00 0.00 0.00 0.00 0.00 0.00
0.00 0.00 0.00 0.00 0.00 0.00 0.00 0.00 0.00 0.00 0.00 0.00 0.00 0.00 0.00 0.00 0.00 0.00 0.00 0.00 0.00 0.00 0.00 0.00 0.00 0.00 0.00 0.00 0.00 0.01 0.01 0.01 0.01 0.00 0.00 0.00 0.00 0.00 0.00 0.00 0.00 0.00 0.00
0.00 0.00 0.00 0.00 0.00 0.00 0.00 0.00 0.00 0.00 0.00 0.00 0.00 0.00 0.00 0.00 0.00 0.00 0.00 0.00 0.00 0.00 0.00 0.00 0.00 0.00 0.00 0.00 0.00 0.01 0.01 0.01 0.00 0.00 0.00 0.00 0.00 0.00 0.00 0.00 0.00 0.00 0.00
MSLP
1007.66 1007.58 1007.50 1007.43 1007.40 1007.41 1007.51 1007.73 1008.09 1008.59 1009.22 1009.96 1010.76 1011.58 1012.40 1013.16 1013.85 1014.46 1015.00 1015.48 1015.91 1016.31 1016.71 1017.10 1017.48 1017.85 1018.20 1018.50 1018.73 1018.88 1018.94 1018.90 1018.78 1018.58 1018.33 1018.05 1017.76 1017.50 1017.27 1017.08 1016.93 1016.81 1016.70
1007.17 1007.20 1007.24 1007.27 1007.30 1007.36 1007.49 1007.72 1008.08 1008.58 1009.21 1009.96 1010.79 1011.65 1012.50 1013.30 1014.03 1014.69 1015.26 1015.76 1016.22 1016.64 1017.04 1017.44 1017.81 1018.18 1018.51 1018.80 1019.03 1019.20 1019.28 1019.29 1019.21 1019.06 1018.85 1018.59 1018.30 1017.99 1017.69 1017.40 1017.13 1016.89 1016.66
1006.51 1006.68 1006.85 1007.00 1007.13 1007.27 1007.45 1007.71 1008.08 1008.59 1009.23 1009.98 1010.82 1011.70 1012.58 1013.41 1014.18 1014.87 1015.48 1016.02 1016.50 1016.94 1017.36 1017.74 1018.11 1018.46 1018.77 1019.05 1019.28 1019.46 1019.59 1019.64 1019.63 1019.55 1019.40 1019.18 1018.90 1018.57 1018.20 1017.80 1017.41 1017.02 1016.66
1005.69 1005.99 1006.30 1006.59 1006.85 1007.09 1007.34 1007.65 1008.06 1008.58 1009.23 1009.99 1010.84 1011.73 1012.62 1013.48 1014.28 1015.01 1015.65 1016.23 1016.75 1017.21 1017.64 1018.02 1018.38 1018.70 1018.99 1019.25 1019.48 1019.67 1019.83 1019.94 1020.01 1020.01 1019.93 1019.77 1019.51 1019.16 1018.73 1018.25 1017.73 1017.21 1016.70
1004.74 1005.18 1005.64 1006.08 1006.47 1006.83 1007.17 1007.55 1008.00 1008.56 1009.22 1009.99 1010.84 1011.73 1012.64 1013.52 1014.35 1015.11 1015.80 1016.42 1016.98 1017.47 1017.91 1018.29 1018.63 1018.92 1019.18 1019.42 1019.63 1019.83 1020.01 1020.17 1020.30 1020.37 1020.37 1020.26 1020.03 1019.69 1019.22 1018.67 1018.05 1017.41 1016.77
1003.77 1004.33 1004.93 1005.51 1006.04 1006.52 1006.97 1007.43 1007.94 1008.53 1009.22 1010.00 1010.85 1011.75 1012.66 1013.56 1014.42 1015.21 1015.95 1016.61 1017.20 1017.72 1018.17 1018.56 1018.88 1019.15 1019.37 1019.56 1019.75 1019.93 1020.11 1020.30 1020.47 1020.60 1020.65 1020.59 1020.40 1020.07 1019.59 1018.99 1018.30 1017.57 1016.83
1002.91 1003.57 1004.28 1004.99 1005.64 1006.24 1006.80 1007.34 1007.92 1008.55 1009.27 1010.06 1010.91 1011.81 1012.73 1013.64 1014.52 1015.35 1016.11 1016.81 1017.44 1017.99 1018.45 1018.83 1019.14 1019.37 1019.55 1019.69 1019.83 1019.97 1020.14 1020.32 1020.50 1020.65 1020.74 1020.72 1020.56 1020.25 1019.77 1019.15 1018.43 1017.64 1016.83
1002.26 1002.99 1003.80 1004.60 1005.36 1006.06 1006.71 1007.34 1007.98 1008.66 1009.41 1010.21 1011.07 1011.97 1012.88 1013.80 1014.68 1015.53 1016.32 1017.04 1017.69 1018.26 1018.73 1019.10 1019.38 1019.57 1019.70 1019.79 1019.87 1019.96 1020.08 1020.23 1020.39 1020.53 1020.63 1020.62 1020.49 1020.19 1019.73 1019.12 1018.38 1017.57 1016.73
1001.90 1002.67 1003.53 1004.41 1005.25 1006.03 1006.77 1007.47 1008.18 1008.90 1009.67 1010.48 1011.34 1012.23 1013.14 1014.04 1014.92 1015.76 1016.56 1017.29 1017.95 1018.52 1018.98 1019.34 1019.59 1019.74 1019.82 1019.85 1019.86 1019.89 1019.94 1020.03 1020.15 1020.26 1020.34 1020.33 1020.20 1019.92 1019.47 1018.88 1018.15 1017.34 1016.49
1001.82 1002.62 1003.51 1004.43 1005.32 1006.18 1006.98 1007.75 1008.51 1009.27 1010.06 1010.89 1011.74 1012.61 1013.49 1014.37 1015.22 1016.05 1016.82 1017.54 1018.18 1018.74 1019.19 1019.52 1019.74 1019.85 1019.88 1019.86 1019.80 1019.76 1019.74 1019.76 1019.82 1019.88 1019.91 1019.88 1019.74 1019.46 1019.03 1018.46 1017.75 1016.96 1016.11
1002.00 1002.79 1003.70 1004.64 1005.57 1006.47 1007.33 1008.16 1008.96 1009.76 1010.58 1011.40 1012.24 1013.09 1013.93 1014.76 1015.58 1016.36 1017.09 1017.77 1018.38 1018.90 1019.32 1019.62 1019.80 1019.88 1019.87 1019.80 1019.69 1019.59 1019.50 1019.46 1019.44 1019.44 1019.42 1019.34 1019.17 1018.89 1018.46 1017.90 1017.22 1016.44 1015.61
1002.31 1003.11 1004.01 1004.97 1005.93 1006.87 1007.78 1008.65 1009.50 1010.33 1011.16 1011.98 1012.80 1013.61 1014.41 1015.19 1015.95 1016.67 1017.34 1017.97 1018.53 1019.00 1019.38 1019.64 1019.79 1019.84 1019.79 1019.69 1019.54 1019.39 1019.25 1019.14 1019.06 1018.99 1018.91 1018.78 1018.57 1018.26 1017.82 1017.27 1016.60 1015.84 1015.01
1002.68 1003.47 1004.38 1005.35 1006.33 1007.30 1008.25 1009.17 1010.06 1010.92 1011.76 1012.58 1013.38 1014.15 1014.90 1015.62 1016.31 1016.96 1017.57 1018.13 1018.63 1019.05 1019.38 1019.60 1019.72 1019.74 1019.68 1019.55 1019.37 1019.19 1019.01 1018.85 1018.71 1018.58 1018.43 1018.24 1017.98 1017.62 1017.16 1016.59 1015.92 1015.17 1014.36
1003.01 1003.82 1004.73 1005.71 1006.71 1007.72 1008.70 1009.66 1010.58 1011.47 1012.33 1013.14 1013.92 1014.66 1015.36 1016.02 1016.64 1017.23 1017.78 1018.27 1018.71 1019.07 1019.36 1019.54 1019.63 1019.63 1019.54 1019.39 1019.20 1019.00 1018.79 1018.59 1018.39 1018.20 1017.98 1017.72 1017.40 1017.00 1016.50 1015.90 1015.22 1014.47 1013.67
1003.28 1004.10 1005.03 1006.02 1007.04 1008.08 1009.10 1010.09 1011.05 1011.96 1012.82 1013.64 1014.40 1015.11 1015.77 1016.38 1016.96 1017.49 1017.98 1018.42 1018.80 1019.11 1019.35 1019.49 1019.55 1019.52 1019.41 1019.25 1019.04 1018.81 1018.57 1018.33 1018.09 1017.83 1017.55 1017.22 1016.84 1016.37 1015.83 1015.20 1014.51 1013.75 1012.96
1003.51 1004.35 1005.29 1006.29 1007.34 1008.39 1009.44 1010.46 1011.44 1012.37 1013.24 1014.05 1014.80 1015.49 1016.13 1016.71 1017.25 1017.74 1018.19 1018.58 1018.92 1019.19 1019.38 1019.48 1019.50 1019.43 1019.30 1019.11 1018.87 1018.61 1018.34 1018.06 1017.76 1017.45 1017.10 1016.71 1016.25 1015.73 1015.14 1014.48 1013.77 1013.01 1012.23
1003.76 1004.62 1005.56 1006.57 1007.62 1008.69 1009.75 1010.79 1011.78 1012.72 1013.60 1014.41 1015.15 1015.82 1016.44 1017.01 1017.53 1018.00 1018.42 1018.78 1019.09 1019.31 1019.46 1019.52 1019.49 1019.38 1019.20 1018.96 1018.69 1018.39 1018.07 1017.73 1017.38 1017.01 1016.59 1016.13 1015.62 1015.05 1014.41 1013.73 1013.01 1012.26 1011.50
1004.11 1004.98 1005.92 1006.92 1007.96 1009.03 1010.09 1011.12 1012.12 1013.05 1013.92 1014.72 1015.46 1016.13 1016.74 1017.30 1017.81 1018.27 1018.68 1019.02 1019.29 1019.48 1019.58 1019.58 1019.49 1019.32 1019.08 1018.79 1018.46 1018.10 1017.73 1017.34 1016.93 1016.49 1016.02 1015.50 1014.93 1014.32 1013.65 1012.96 1012.24 1011.51 1010.78
1004.64 1005.50 1006.42 1007.40 1008.42 1009.46 1010.50 1011.51 1012.49 1013.40 1014.26 1015.05 1015.77 1016.43 1017.04 1017.59 1018.10 1018.55 1018.95 1019.27 1019.51 1019.65 1019.70 1019.64 1019.48 1019.24 1018.93 1018.57 1018.17 1017.75 1017.31 1016.86 1016.39 1015.90 1015.38 1014.82 1014.21 1013.57 1012.89 1012.19 1011.48 1010.78 1010.09
1005.38 1006.21 1007.10 1008.04 1009.02 1010.02 1011.02 1012.00 1012.94 1013.82 1014.65 1015.41 1016.11 1016.76 1017.35 1017.90 1018.40 1018.84 1019.21 1019.50 1019.70 1019.80 1019.78 1019.66 1019.42 1019.10 1018.72 1018.28 1017.81 1017.33 1016.83 1016.33 1015.81 1015.28 1014.72 1014.13 1013.50 1012.84 1012.16 1011.47 1010.79 1010.11 1009.46
1006.32 1007.12 1007.96 1008.85 1009.78 1010.72 1011.67 1012.60 1013.49 1014.33 1015.11 1015.84 1016.51 1017.13 1017.70 1018.22 1018.69 1019.10 1019.44 1019.70 1019.85 1019.88 1019.80 1019.60 1019.29 1018.90 1018.44 1017.93 1017.40 1016.87 1016.33 1015.79 1015.24 1014.68 1014.10 1013.50 1012.86 1012.21 1011.54 1010.86 1010.20 1009.55 1008.93
1007.42 1008.18 1008.97 1009.81 1010.67 1011.56 1012.45 1013.31 1014.15 1014.93 1015.66 1016.33 1016.96 1017.53 1018.06 1018.54 1018.97 1019.34 1019.63 1019.82 1019.91 1019.88 1019.72 1019.45 1019.08 1018.62 1018.10 1017.55 1016.98 1016.41 1015.84 1015.29 1014.73 1014.17 1013.59 1012.99 1012.36 1011.72 1011.06 1010.40 1009.76 1009.14 1008.53
1008.60 1009.32 1010.07 1010.85 1011.66 1012.49 1013.31 1014.11 1014.88 1015.60 1016.26 1016.87 1017.44 1017.95 1018.42 1018.85 1019.22 1019.52 1019.74 1019.87 1019.89 1019.78 1019.56 1019.22 1018.79 1018.29 1017.73 1017.15 1016.57 1015.99 1015.43 1014.88 1014.33 1013.78 1013.22 1012.64 1012.03 1011.40 1010.76 1010.12 1009.49 1008.87 1008.26
1009.78 1010.47 1011.18 1011.92 1012.68 1013.45 1014.21 1014.95 1015.64 1016.29 1016.88 1017.43 1017.92 1018.37 1018.77 1019.12 1019.42 1019.65 1019.80 1019.85 1019.79 1019.62 1019.33 1018.94 1018.47 1017.94 1017.37 1016.78 1016.21 1015.65 1015.11 1014.59 1014.07 1013.55 1013.02 1012.46 1011.87 1011.26 1010.63 1010.00 1009.36 1008.74 1008.11
1010.90 1011.57 1012.26 1012.96 1013.68 1014.39 1015.09 1015.75 1016.38 1016.95 1017.47 1017.94 1018.37 1018.74 1019.07 1019.35 1019.57 1019.72 1019.79 1019.77 1019.64 1019.40 1019.06 1018.64 1018.14 1017.60 1017.03 1016.47 1015.92 1015.40 1014.90 1014.42 1013.94 1013.46 1012.95 1012.42 1011.85 1011.25 1010.63 1009.99 1009.34 1008.69 1008.04
1011.91 1012.58 1013.25 1013.93 1014.60 1015.26 1015.90 1016.50 1017.05 1017.55 1018.00 1018.40 1018.75 1019.05 1019.31 1019.52 1019.67 1019.75 1019.74 1019.65 1019.46 1019.17 1018.79 1018.34 1017.84 1017.30 1016.76 1016.23 1015.72 1015.24 1014.79 1014.35 1013.91 1013.46 1012.98 1012.47 1011.91 1011.31 1010.68 1010.03 1009.36 1008.68 1007.98
Thickness
5669 5673 5678 5682 5685 5687 5688 5688 5685 5681 5678 5673 5666 5658 5650 5646 5643 5642 5638 5635 5632 5628 5624 5618 5614 5611 5607 5602 5599 5596 5593 5589 5586 5584 5584 5585 5584 5582 5580 5576 5572 5568 5566
5663 5667 5670 5673 5676 5679 5680 5680 5678 5675 5673 5670 5663 5654 5645 5638 5634 5631 5628 5625 5623 5620 5615 5611 5606 5602 5597 5592 5588 5584 5579 5575 5572 5567 5566 5565 5568 5569 5570 5564 5561 5556 5552
5660 5660 5663 5666 5668 5670 5672 5674 5670 5667 5665 5661 5655 5645 5637 5631 5625 5620 5617 5615 5614 5610 5606 5602 5597 5593 5588 5581 5576 5572 5566 5561 5557 5554 5550 5546 5544 5547 5555 5553 5548 5543 5537
5658 5658 5659 5661 5663 5664 5664 5665 5663 5660 5658 5656 5651 5644 5637 5627 5620 5614 5609 5605 5603 5600 5596 5592 5588 5583 5577 5571 5565 5559 5554 5548 5543 5539 5535 5530 5526 5522 5532 5539 5536 5531 5525
5656 5657 5660 5662 5660 5657 5657 5656 5654 5652 5650 5649 5646 5641 5632 5622 5611 5605 5600 5595 5592 5589 5586 5582 5577 5571 5565 5559 5553 5547 5541 5535 5530 5525 5520 5516 5511 5505 5501 5513 5518 5516 5512
5653 5656 5657 5655 5651 5649 5649 5649 5647 5644 5642 5640 5638 5635 5625 5615 5604 5597 5591 5586 5581 5578 5574 5570 5565 5559 5553 5547 5540 5534 5529 5523 5518 5512 5506 5501 5495 5491 5485 5487 5496 5499 5499
5647 5648 5647 5648 5646 5644 5643 5642 5640 5635 5633 5631 5629 5625 5619 5610 5601 5592 5585 5578 5572 5566 5562 5558 5553 5547 5541 5535 5529 5522 5517 5511 5506 5500 5493 5487 5481 5475 5469 5467 5473 5478 5483
5639 5642 5644 5646 5644 5641 5638 5637 5634 5628 5623 5621 5617 5613 5607 5600 5591 5583 5577 5570 5563 5557 5552 5547 5541 5535 5529 5523 5517 5511 5505 5500 5494 5488 5481 5474 5468 5461 5454 5447 5445 5454 5465
5630 5635 5638 5639 5639 5636 5634 5631 5627 5619 5613 5609 5606 5601 5595 5589 5581 5573 5566 5559 5553 5547 5541 5536 5530 5524 5518 5512 5506 5500 5494 5488 5482 5476 5469 5461 5455 5447 5439 5430 5421 5416 5428
5624 5630 5633 5633 5632 5629 5625 5621 5617 5611 5604 5599 5596 5591 5585 5579 5571 5564 5556 5549 5543 5537 5531 5525 5519 5513 5507 5501 5495 5489 5484 5477 5470 5464 5456 5448 5441 5433 5424 5416 5407 5397 5393
5622 5626 5627 5625 5622 5619 5615 5610 5606 5601 5594 5588 5584 5580 5574 5568 5561 5553 5545 5539 5533 5527 5521 5515 5508 5502 5496 5490 5484 5478 5472 5465 5458 5450 5443 5435 5428 5420 5411 5403 5394 5384 5373
5618 5619 5617 5613 5610 5608 5605 5600 5596 5591 5584 5579 5574 5569 5563 5556 5549 5541 5535 5530 5523 5517 5511 5504 5498 5491 5485 5479 5473 5467 5460 5453 5445 5437 5429 5422 5415 5407 5398 5388 5379 5368 5356
5606 5606 5604 5602 5600 5598 5594 5589 5585 5580 5575 5570 5564 5558 5551 5545 5538 5531 5525 5519 5513 5507 5500 5494 5486 5480 5474 5468 5462 5455 5448 5440 5431 5423 5415 5408 5400 5392 5383 5373 5362 5351 5339
5597 5595 5593 5592 5591 5588 5584 5579 5573 5570 5566 5561 5554 5547 5540 5534 5528 5522 5516 5509 5503 5496 5489 5482 5475 5469 5463 5457 5450 5444 5435 5426 5417 5409 5401 5394 5385 5376 5367 5358 5346 5331 5317
5591 5591 5587 5584 5581 5578 5573 5568 5564 5561 5557 5551 5543 5536 5530 5524 5518 5512 5505 5499 5493 5485 5478 5470 5464 5457 5451 5445 5439 5432 5424 5414 5405 5397 5388 5379 5371 5362 5350 5339 5325 5308 5293
5590 5588 5583 5578 5574 5570 5565 5560 5556 5551 5548 5541 5532 5526 5520 5514 5508 5502 5495 5488 5481 5473 5466 5459 5452 5445 5439 5433 5427 5420 5412 5402 5393 5385 5376 5366 5356 5345 5334 5318 5303 5287 5273
5588 5585 5580 5575 5568 5564 5560 5554 5547 5543 5538 5530 5523 5517 5511 5505 5498 5492 5484 5477 5469 5462 5455 5448 5440 5433 5426 5421 5415 5408 5401 5390 5380 5371 5361 5352 5340 5326 5313 5302 5291 5277 5263
5587 5581 5575 5567 5561 5556 5551 5546 5541 5535 5528 5521 5513 5508 5502 5495 5487 5481 5473 5466 5458 5451 5443 5436 5428 5421 5414 5409 5403 5397 5388 5377 5366 5355 5344 5333 5322 5308 5297 5290 5280 5268 5258
5584 5577 5569 5562 5555 5550 5545 5540 5532 5525 5518 5511 5504 5498 5492 5484 5477 5469 5462 5454 5447 5439 5432 5424 5417 5409 5402 5396 5391 5385 5375 5364 5353 5341 5327 5315 5304 5293 5283 5275 5268 5262 5257
5575 5567 5559 5553 5547 5542 5539 5532 5523 5515 5508 5501 5494 5488 5481 5473 5465 5458 5450 5442 5435 5428 5421 5413 5405 5397 5390 5384 5379 5372 5363 5353 5343 5328 5312 5297 5285 5276 5269 5264 5259 5256 5255
5562 5557 5551 5545 5538 5534 5530 5522 5513 5504 5497 5491 5483 5476 5469 5461 5453 5446 5439 5431 5424 5417 5409 5402 5394 5386 5379 5373 5365 5356 5346 5336 5326 5313 5298 5283 5272 5266 5261 5257 5252 5250 5252
5548 5545 5539 5531 5526 5524 5520 5510 5499 5492 5486 5479 5471 5463 5456 5450 5442 5435 5428 5421 5413 5404 5396 5389 5382 5375 5366 5359 5351 5341 5330 5319 5307 5295 5281 5271 5265 5260 5255 5251 5249 5249 5247
5535 5532 5528 5520 5513 5511 5509 5499 5487 5481 5475 5466 5458 5450 5444 5437 5431 5425 5418 5409 5400 5392 5384 5376 5370 5364 5356 5345 5337 5327 5316 5303 5290 5278 5267 5260 5255 5252 5247 5245 5246 5244 5240
5523 5521 5517 5509 5500 5495 5492 5485 5477 5470 5463 5453 5445 5439 5432 5426 5420 5413 5406 5397 5388 5380 5372 5365 5361 5352 5343 5333 5324 5313 5301 5289 5276 5265 5257 5251 5246 5243 5242 5241 5239 5237 5235
5513 5510 5505 5496 5487 5482 5476 5471 5465 5459 5450 5442 5435 5428 5422 5415 5408 5401 5393 5385 5377 5369 5363 5356 5347 5339 5330 5319 5308 5295 5284 5272 5262 5256 5249 5243 5240 5238 5237 5236 5234 5233 5232
5502 5496 5490 5483 5475 5470 5464 5458 5453 5448 5440 5432 5424 5417 5410 5404 5396 5388 5381 5375 5368 5361 5352 5343 5334 5323 5312 5302 5290 5277 5265 5256 5250 5244 5238 5235 5232 5232 5232 5231 5230 5229 5228